Greenville Junction, ME

9:07 PM EDT on September 29, 2016 (GMT -0400)
Greenville

Weather History for KGNR - April, 2013

Change the Weather History Date:

Friday, April 12, 2013

  Actual Average (KMLT) Record (KMLT)
Temperature  
Mean Temperature 28 °F 39 °F  
Max Temperature 36 °F 49 °F 86 °F (1945)
Min Temperature 23 °F 29 °F 10 °F (1909)
Degree Days  
Heating Degree Days 36 26  
Month to date heating degree days 342  
Since 1 July heating degree days 7541  
Cooling Degree Days 0 0  
Month to date cooling degree days 0  
Year to date cooling degree days 0  
Moisture  
Dew Point 18 °F    
Average Humidity 67    
Maximum Humidity 96    
Minimum Humidity 44    
Precipitation  
Precipitation 0.43 in 0.12 in 2.50 in (1940)
Month to date precipitation 1.55  
Year to date precipitation 9.72  
Sea Level Pressure  
Sea Level Pressure 30.13 in    
Wind  
Wind Speed 6 mph (ESE)    
Max Wind Speed 12 mph    
Max Gust Speed 20 mph    
T = Trace of Precipitation, MM = Missing Value Source: NWS Daily Summary

Daily Weather History Graph

Daily Weather History Graph

Search for Another Location

Airport or City:

Trip Planner

Search our weather history database for the weather conditions in past years. The results will help you decide how hot, cold, wet, or windy it might be!

Date:

Astronomy

Apr. 12, 2013 Rise Set
Actual Time 5:57 AM EDT 7:20 PM EDT
Civil Twilight 5:27 AM EDT 7:51 PM EDT
Nautical Twilight 4:50 AM EDT 8:28 PM EDT
Astronomical Twilight 4:10 AM EDT 9:08 PM EDT
Moon 6:59 AM EDT (4/12) 9:56 PM EDT (4/12)
Length of Visible Light 14h 24m
Length of Day
13h 23m
Waxing Crescent, 5% of the Moon is Illuminated
Apr 12
Waxing Crescent
Apr 18
First Quarter
Apr 25
Full
May 2
Last Quarter
May 9
New

Hourly Weather History & Observations

Time (EDT) Temp. Windchill Dew Point Humidity Pressure Visibility Wind Dir Wind Speed Gust Speed Precip Events Conditions
12:56 AM 25.0 °F 18.1 °F 9.0 °F 51% 30.22 in - NNW 5.8 mph - N/A   Unknown
1:56 AM 25.0 °F 20.7 °F 9.0 °F 51% 30.22 in - Variable 3.5 mph - N/A   Unknown
2:56 AM 25.0 °F 16.3 °F 10.0 °F 53% 30.22 in - North 8.1 mph - N/A   Unknown
3:56 AM 23.0 °F 15.8 °F 10.9 °F 60% 30.22 in - NNW 5.8 mph - N/A   Unknown
4:56 AM 23.0 °F 18.4 °F 10.9 °F 60% 30.22 in - North 3.5 mph - N/A   Unknown
5:56 AM 23.0 °F - 12.0 °F 63% 30.25 in - Calm Calm - N/A   Unknown
6:56 AM 24.1 °F 18.2 °F 14.0 °F 65% 30.25 in - NE 4.6 mph - N/A   Unknown
7:56 AM 27.0 °F - 14.0 °F 58% 30.24 in - Calm Calm - N/A   Unknown
8:56 AM 30.0 °F - 12.9 °F 49% 30.21 in - Calm Calm - N/A   Unknown
9:56 AM 34.0 °F 28.0 °F 14.0 °F 44% 30.17 in - Variable 6.9 mph - N/A   Unknown
10:56 AM 34.0 °F 28.0 °F 14.0 °F 44% 30.17 in - ESE 6.9 mph - N/A   Unknown
11:56 AM 34.0 °F 28.0 °F 14.0 °F 44% 30.16 in - ESE 6.9 mph - N/A   Unknown
12:56 PM 33.1 °F 24.9 °F 15.1 °F 48% 30.11 in - ESE 10.4 mph - N/A   Unknown
1:56 PM 33.1 °F 27.7 °F 15.1 °F 48% 30.09 in - SSE 5.8 mph - N/A   Unknown
2:56 PM 32.0 °F 25.6 °F 17.1 °F 54% 30.09 in - ESE 6.9 mph - N/A   Unknown
3:56 PM 28.0 °F 21.7 °F 25.0 °F 88% 30.08 in - Variable 5.8 mph - 0.02 in   Unknown
4:56 PM 28.0 °F 21.7 °F 27.0 °F 96% 30.09 in - SE 5.8 mph - 0.17 in   Unknown
5:56 PM 28.0 °F 20.8 °F 26.1 °F 92% 30.08 in - SE 6.9 mph 19.6 mph 0.07 in   Unknown
6:56 PM 28.0 °F 19.3 °F 26.1 °F 92% 30.06 in - SE 9.2 mph - 0.04 in   Unknown
7:56 PM 27.0 °F 18.0 °F 25.0 °F 92% 30.03 in - SE 9.2 mph 18.4 mph 0.04 in   Unknown
8:56 PM 27.0 °F 17.3 °F 25.0 °F 92% 30.00 in - ESE 10.4 mph 16.1 mph 0.04 in   Unknown
9:56 PM 27.0 °F 16.7 °F 25.0 °F 92% 29.98 in - ESE 11.5 mph - 0.01 in   Unknown
10:56 PM 27.0 °F 17.3 °F 25.0 °F 92% 29.96 in - ESE 10.4 mph 16.1 mph 0.03 in   Unknown
11:56 PM 27.0 °F 16.7 °F 25.0 °F 92% 29.93 in - ESE 11.5 mph - 0.01 in   Unknown